Weather History for Sioux Falls, SD

Change the Weather History Date:

Sunday, October 6, 2013

  Actual Average Record
Temperature  
Mean Temperature 51 °F 52 °F  
Max Temperature 59 °F 64 °F 88 °F (2007)
Min Temperature 43 °F 40 °F 21 °F (2001)
Degree Days  
Heating Degree Days 14 13  
Month to date heating degree days 62 73  
Since 1 July heating degree days 162 277  
Cooling Degree Days 0 0  
Month to date cooling degree days 0 0  
Year to date cooling degree days 784 685  
Moisture  
Dew Point 41 °F    
Average Humidity 67    
Maximum Humidity 93    
Minimum Humidity 40    
Precipitation  
Precipitation 0.01 in 0.08 in 2.15 in (2008)
Month to date precipitation 0.24 0.53  
Year to date precipitation 21.43 22.69  
Snow  
Snow 0.00 in 0.00 in 0.00 in ()
Month to date snowfall 0.0 0.1  
Since 1 July snowfall 0.0 0.1  
Since 1 September snowfall 0.0 0.1  
Snow Depth 0.00 in    
Sea Level Pressure  
Sea Level Pressure 29.85 in    
Wind  
Wind Speed 13 mph (NW)    
Max Wind Speed 28 mph    
Max Gust Speed 33 mph    
Visibility 10 miles    
Events Rain    
T = Trace of Precipitation, MM = Missing Value Source: NWS Daily Summary

Daily Weather History Graph

Daily Weather History Graph

Search for Another Location

Airport:

Trip Planner

Search our weather history database for the weather conditions in past years. The results will help you decide how hot, cold, wet, or windy it might be!

Date:

Astronomy

Oct. 06, 2013 Rise Set
Actual Time 7:30 AM CDT 6:58 PM CDT
Civil Twilight 7:02 AM CDT 7:27 PM CDT
Nautical Twilight 6:28 AM CDT 8:00 PM CDT
Astronomical Twilight 5:55 AM CDT 8:33 PM CDT
Moon 9:20 AM CDT (10/6) 7:54 PM CDT (10/6)
Length of Visible Light 12h 25m
Length of Day
11h 27m
Waxing Crescent, 3% of the Moon is Illuminated
Oct 6
Waxing Crescent
Oct 11
First Quarter
Oct 18
Full
Oct 26
Last Quarter
Nov 3
New

Hourly Weather History & Observations

Time (CDT) Temp. Windchill Dew Point Humidity Pressure Visibility Wind Dir Wind Speed Gust Speed Precip Events Conditions
12:17 AM 42.8 °F 38.0 °F 39.2 °F 87% 29.77 in 10.0 mi NNW 8.1 mph - N/A   Overcast
12:42 AM 42.8 °F 36.6 °F 39.2 °F 87% 29.78 in 10.0 mi NNW 11.5 mph - N/A   Overcast
12:56 AM 43.0 °F 36.8 °F 39.9 °F 89% 29.80 in 10.0 mi NNW 11.5 mph - N/A   Overcast
1:56 AM 44.1 °F 38.6 °F 39.9 °F 85% 29.81 in 10.0 mi NNW 10.4 mph - N/A   Overcast
2:56 AM 44.1 °F 39.5 °F 39.9 °F 85% 29.81 in 10.0 mi NW 8.1 mph - 0.00 in   Overcast
3:56 AM 44.1 °F 39.5 °F 39.0 °F 82% 29.80 in 10.0 mi NW 8.1 mph - N/A   Overcast
4:30 AM 44.6 °F 40.2 °F 39.2 °F 81% 29.77 in 10.0 mi WNW 8.1 mph - N/A   Overcast
4:46 AM 44.6 °F 39.2 °F 39.2 °F 81% 29.77 in 10.0 mi WNW 10.4 mph - N/A   Overcast
4:56 AM 44.1 °F 38.6 °F 41.0 °F 89% 29.81 in 10.0 mi NW 10.4 mph - N/A   Overcast
5:27 AM 44.6 °F 39.2 °F 42.8 °F 93% 29.78 in 10.0 mi NW 10.4 mph - 0.00 in   Overcast
5:56 AM 45.0 °F 40.1 °F 43.0 °F 93% 29.80 in 10.0 mi WNW 9.2 mph - 0.00 in   Overcast
6:48 AM 46.4 °F 40.1 °F 44.6 °F 93% 29.78 in 10.0 mi NW 15.0 mph - 0.00 in   Overcast
6:56 AM 46.0 °F 39.9 °F 44.1 °F 93% 29.81 in 9.0 mi NW 13.8 mph - 0.00 in   Overcast
7:13 AM 46.4 °F 40.7 °F 44.6 °F 93% 29.79 in 10.0 mi NW 12.7 mph 20.7 mph 0.00 in Rain Light Rain
7:25 AM 46.4 °F 39.8 °F 42.8 °F 87% 29.79 in 10.0 mi NW 16.1 mph 24.2 mph 0.00 in Rain Light Rain
7:56 AM 45.0 °F 37.9 °F 43.0 °F 93% 29.83 in 10.0 mi NW 16.1 mph 20.7 mph 0.00 in Rain Light Rain
8:56 AM 45.0 °F 38.2 °F 43.0 °F 93% 29.84 in 8.0 mi NW 15.0 mph 23.0 mph 0.00 in   Overcast
9:22 AM 44.6 °F 36.9 °F 42.8 °F 93% 29.81 in 10.0 mi NNW 18.4 mph 25.3 mph 0.00 in   Light Drizzle
9:47 AM 46.4 °F 38.7 °F 42.8 °F 87% 29.83 in 10.0 mi NNW 20.7 mph 25.3 mph 0.00 in   Overcast
9:56 AM 46.0 °F 38.8 °F 42.1 °F 86% 29.85 in 10.0 mi NNW 18.4 mph 24.2 mph 0.00 in   Overcast
10:56 AM 45.0 °F 37.9 °F 43.0 °F 93% 29.87 in 8.0 mi NNW 16.1 mph 26.5 mph 0.01 in   Overcast
11:56 AM 46.9 °F - 44.1 °F 90% 29.88 in 4.0 mi NNW 17.3 mph 25.3 mph 0.00 in Rain Light Rain
12:12 PM 46.4 °F 40.1 °F 44.6 °F 93% 29.85 in 3.0 mi NNW 15.0 mph - 0.00 in Rain Light Rain
12:34 PM 46.4 °F 39.2 °F 44.6 °F 93% 29.86 in 10.0 mi NNW 18.4 mph 23.0 mph 0.00 in   Overcast
12:56 PM 46.9 °F - 44.1 °F 90% 29.88 in 10.0 mi NNW 16.1 mph 23.0 mph 0.00 in   Light Drizzle
1:56 PM 46.9 °F - 44.1 °F 90% 29.88 in 9.0 mi NNW 19.6 mph 27.6 mph 0.00 in   Overcast
2:43 PM 48.2 °F - 44.6 °F 87% 29.86 in 10.0 mi NNW 21.9 mph 29.9 mph 0.00 in   Overcast
2:56 PM 51.1 °F - 44.1 °F 77% 29.88 in 10.0 mi NNW 19.6 mph 28.8 mph 0.00 in   Overcast
3:56 PM 57.9 °F - 42.1 °F 56% 29.87 in 10.0 mi NW 25.3 mph 31.1 mph N/A   Mostly Cloudy
4:11 PM 57.2 °F - 39.2 °F 51% 29.85 in 10.0 mi NNW 18.4 mph 31.1 mph N/A   Scattered Clouds
4:56 PM 57.9 °F - 33.1 °F 39% 29.89 in 10.0 mi NNW 20.7 mph 31.1 mph N/A   Partly Cloudy
5:56 PM 57.0 °F - 33.1 °F 40% 29.91 in 10.0 mi NW 17.3 mph 23.0 mph N/A   Partly Cloudy
6:56 PM 53.1 °F - 34.0 °F 48% 29.94 in 10.0 mi NW 10.4 mph - N/A   Partly Cloudy
7:56 PM 50.0 °F - 35.1 °F 57% 29.96 in 10.0 mi NW 10.4 mph - N/A   Partly Cloudy
8:56 PM 48.0 °F - 36.0 °F 63% 29.98 in 10.0 mi WNW 8.1 mph - N/A   Clear
9:56 PM 46.0 °F 42.5 °F 36.0 °F 68% 29.99 in 10.0 mi WNW 6.9 mph - N/A   Partly Cloudy
10:56 PM 45.0 °F 42.6 °F 36.0 °F 71% 30.01 in 10.0 mi West 4.6 mph - N/A   Scattered Clouds
11:56 PM 44.1 °F 41.5 °F 36.0 °F 73% 30.01 in 10.0 mi West 4.6 mph - N/A   Partly Cloudy